[[{"header":{"parameterUnit":"m.s-1","parameterCategory":1,"la1":30.2991,"la2":30.254,"lo1":-89.0895,"lo2":-89.0444,"dy":0.0017,"dx":0.0017,"nx":28,"ny":28,"refTime":"2024-09-04T09:00:00:Z","depth":0,"parameterNumber":2,"parameterNumberName":"U-component_of_WINDS"},"data":[0,0,0,0,0,0,0,0,0,0,0,0,0,0,0,0,0,0,0,0,0,0,0,0,0,0,0,0,0,0,0,0,0,0,0,0,0,0,0,0,0,0,0,0,0,0,0,0,0,0,0,0,0,0,0,0,0,0,-6.2782,-6.2783,0,-6.2853,-6.2853,-6.2854,-6.2672,-6.2666,-6.266,-6.2655,-6.2729,-6.2736,-6.2743,0,0,0,0,0,0,0,0,0,0,0,0,0,-6.2492,-6.2499,-6.2782,-6.2783,-6.2784,-6.2852,-6.2853,-6.2854,-6.2673,-6.2666,-6.2659,-6.2652,-6.2726,-6.2735,-6.2744,0,0,0,0,0,0,0,0,0,0,0,0,0,-6.2596,-6.2501,-6.2782,-6.2702,-6.2695,-6.2852,-6.2853,-6.2855,-6.2674,-6.2666,-6.2657,-6.2649,-6.2724,-6.2734,-6.2745,-6.2984,0,0,-6.2778,-6.2783,0,0,0,0,0,0,0,0,-6.2591,-6.2607,-6.2713,-6.2707,-6.27,-6.2744,-6.2778,-6.2898,-6.2676,-6.2682,-6.2655,-6.2645,-6.2741,-6.275,-6.2782,-6.2987,-6.299,-6.2779,-6.2786,-6.2791,-6.2794,0,0,0,0,0,0,0,-6.2584,-6.2603,-6.281,-6.2714,-6.2707,-6.2663,-6.2668,-6.28,-6.2759,-6.2681,-6.2668,-6.2679,-6.2736,-6.2772,-6.2782,-6.2991,-6.2779,-6.2789,-6.2795,-6.28,-6.3396,-6.3405,0,0,0,0,0,0,-6.2587,-6.2598,-6.2808,-6.2812,-6.2623,-6.2675,-6.2681,-6.2739,-6.2757,-6.2751,-6.2686,-6.267,-6.2758,-6.277,-6.2784,-6.3065,-6.2791,-6.2801,-6.2807,-6.3387,-6.3399,-6.3409,0,0,0,0,0,0,-6.2581,-6.2607,-6.2805,-6.2702,-6.2723,-6.2689,-6.2756,-6.2745,-6.278,-6.2761,-6.2752,-6.273,-6.2751,-6.2769,-6.2935,-6.3065,-6.2806,-6.2816,-6.3376,-6.3391,-6.3404,-6.3629,0,0,0,0,0,0,-6.2573,-6.2606,-6.2696,-6.2705,-6.273,-6.2955,-6.2764,-6.2753,-6.28,-6.2779,-6.28,-6.2795,-6.2746,-6.292,-6.2946,-6.3075,-6.2824,-6.3364,-6.3383,-6.3399,-6.3609,-6.3648,-6.3682,0,0,0,0,0,-6.2564,-6.2757,-6.2701,-6.2728,-6.2841,-6.2963,-6.2977,-6.2916,-6.2811,-6.2901,-6.2889,-6.2794,-6.3047,-6.2939,-6.2967,-6.3101,-6.3356,-6.3378,-6.3398,-6.3593,-6.3641,-6.3681,0,0,0,0,0,0,-6.2764,-6.2756,-6.2695,-6.2896,-6.2932,-6.2932,-6.3043,-6.2968,-6.3034,-6.3013,-6.2935,-6.2941,-6.3122,-6.3128,-6.3008,-6.3333,-6.3184,-6.3211,-6.3323,-6.3368,-6.3403,-6.3398,-6.2833,0,0,0,0,0,-6.2832,-6.293,-6.2918,-6.3098,-6.3118,-6.3079,-6.3129,-6.3079,-6.3113,-6.3127,-6.3126,-6.3163,-6.325,-6.3309,-6.3388,-6.361,-6.3612,-6.3716,-6.3752,-6.3782,-6.3807,-6.3924,-6.3971,-6.3477,-6.3477,-6.3477,0,0,-6.2972,-6.298,-6.3047,-6.3138,-6.3159,-6.3264,-6.3092,-6.321,-6.3287,-6.3145,-6.3301,-6.3303,-6.3339,-6.3534,-6.362,-6.3544,-6.3944,-6.3809,-6.3833,-6.3841,-6.3951,-6.3998,-6.4039,-6.3491,-6.3489,-6.3487,0,0,-6.3281,-6.3298,-6.3448,-6.3474,-6.3508,-6.348,-6.3517,-6.3529,-6.3525,-6.3681,-6.3576,-6.3667,-6.382,-6.3849,-6.3885,-6.4207,-6.4123,-6.4236,-6.4425,-6.454,-6.4579,-6.4613,-6.4728,-6.4771,-6.426,-6.4261,-6.4261,0,-6.3452,-6.3604,-6.3536,-6.3661,-6.3704,-6.358,-6.3733,-6.3761,-6.382,-6.3853,-6.3768,-6.3957,-6.3972,-6.4173,-6.4252,-6.4284,-6.4324,-6.4232,-6.4579,-6.4613,-6.4643,-6.4752,-6.4796,-6.4274,-6.4273,-6.4271,-6.427,0,-6.3812,-6.392,-6.4038,-6.4098,-6.4154,-6.4293,-6.4246,-6.4312,-6.4258,-6.424,-6.4401,-6.4416,-6.4496,-6.454,-6.4488,-6.4734,-6.4686,-6.4592,-6.444,-6.4705,-6.4806,-6.4847,-6.4293,-6.4289,-6.4285,-6.4281,0,0,-6.4248,-6.4269,-6.4313,-6.4339,-6.4369,-6.4451,-6.4585,-6.4663,-6.4721,-6.4767,-6.4877,-6.5009,-6.4922,-6.4962,-6.4913,-6.5016,-6.527,-6.4908,-6.4908,-6.4975,-6.5542,-6.5612,-6.5662,-6.5215,-6.5223,-6.5229,-6.5539,0,-6.4552,-6.478,-6.4723,-6.495,-6.5049,-6.4934,-6.505,-6.5082,-6.5069,-6.5152,-6.5138,-6.5233,-6.5111,-6.5134,-6.523,-6.5219,-6.5383,-6.5196,-6.5317,-6.5322,-6.5311,-6.5714,-6.5789,-6.608,-6.5578,-6.5585,-6.5589,0,-6.4938,-6.4998,-6.5235,-6.5249,-6.5289,-6.5394,-6.5462,-6.5542,-6.5576,-6.5559,-6.5606,-6.5537,-6.5669,-6.5518,-6.57,-6.5574,-6.562,-6.5623,-6.5633,-6.5641,-6.5471,-6.5733,-6.6172,-6.6216,-6.5651,-6.5646,-6.5641,0,-6.5232,-6.5372,-6.5532,-6.5558,-6.5579,-6.5656,-6.5668,-6.5693,-6.5744,-6.5804,-6.5836,-6.5911,-6.5952,-6.6012,-6.5966,-6.5859,-6.6156,-6.5999,-6.6146,-6.6147,-6.6212,-6.6209,-6.6664,-6.6245,-6.6244,-6.6243,-6.6242,0,-6.5577,-6.5727,-6.5664,-6.5762,-6.5927,-6.586,-6.6025,-6.6024,-6.6048,-6.6144,-6.605,-6.6143,-6.6076,-6.6164,-6.6129,-6.6285,-6.6305,-6.6296,-6.6284,-6.6304,-6.6305,-6.6332,-6.631,-6.6255,-6.6252,-6.625,-6.6248,0,-6.5932,-6.5896,-6.6063,-6.6069,-6.6075,-6.6195,-6.6201,-6.6292,-6.6273,-6.6397,-6.6422,-6.6393,-6.6491,-6.6451,-6.6555,-6.6532,-6.6732,-6.6694,-6.672,-6.671,-6.6859,-6.6845,-6.7347,-6.741,-6.6951,-6.6955,-6.6959,0,-6.6155,-6.6267,-6.6286,-6.6343,-6.6362,-6.6457,-6.6508,-6.6448,-6.6506,-6.6554,-6.664,-6.673,-6.6799,-6.6962,-6.695,-6.703,-6.6993,-6.7163,-6.7004,-6.702,-6.6995,-6.6988,-6.6999,-6.7195,-6.72,-6.7204,-6.7208,0,-6.6553,-6.653,-6.6608,-6.6681,-6.6745,-6.6799,-6.6845,-6.6898,-6.684,-6.6911,-6.701,-6.7063,-6.717,-6.7261,-6.7332,-6.7345,-6.7268,-6.7259,-6.7296,-6.7317,-6.7327,-6.7323,-6.6807,-6.7247,-6.7243,-6.724,-6.7238,-6.7236,-6.6848,-6.6942,-6.697,-6.7061,-6.7089,-6.7135,-6.7221,-6.7213,-6.7295,-6.7376,-6.7336,-6.7452,-6.7484,-6.7571,-6.7596,-6.7685,-6.7619,-6.7674,-6.7688,-6.7702,-6.7721,-6.7314,-6.7698,-6.7697,-6.7696,-6.7695,-6.7694,0,-6.7241,-6.7253,-6.7337,-6.7405,-6.7476,-6.7397,-6.7445,-6.751,-6.7613,-6.7649,-6.7719,-6.7833,-6.7922,-6.7918,-6.7999,-6.8072,-6.8039,-6.8096,-6.8089,-6.8093,-6.7776,-6.7735,-6.8121,-6.8121,-6.8121,-6.8121,-6.8121,-6.8121,-6.7453,-6.7609,-6.759,-6.7759,-6.7771,-6.7883,-6.7917,-6.7959,-6.7987,-6.8119,-6.8192,-6.8189,-6.8209,-6.8292,-6.837,-6.8366,-6.84,-6.8471,-6.8454,-6.8158,-6.8116,-6.8075,-6.8036,-6.8479,-6.8479,-6.8763,-6.8766,-6.8768]},{"header":{"parameterUnit":"m.s-1","parameterCategory":1,"la1":30.2991,"la2":30.254,"lo1":-89.0895,"lo2":-89.0444,"dy":0.0017,"dx":0.0017,"nx":28,"ny":28,"refTime":"2024-09-04T09:00:00:Z","depth":0,"parameterNumber":3,"parameterNumberName":"V-component_of_WINDS"},"data":[0,0,0,0,0,0,0,0,0,0,0,0,0,0,0,0,0,0,0,0,0,0,0,0,0,0,0,0,0,0,0,0,0,0,0,0,0,0,0,0,0,0,0,0,0,0,0,0,0,0,0,0,0,0,0,0,0,0,-1.7801,-1.78,0,-1.7752,-1.7751,-1.7751,-1.7691,-1.769,-1.7689,-1.7688,-1.7639,-1.7638,-1.7638,0,0,0,0,0,0,0,0,0,0,0,0,0,-1.7841,-1.7841,-1.7801,-1.78,-1.78,-1.7752,-1.7751,-1.7751,-1.7691,-1.769,-1.7689,-1.7688,-1.7639,-1.7638,-1.7638,0,0,0,0,0,0,0,0,0,0,0,0,0,-1.7811,-1.7841,-1.7801,-1.7764,-1.776,-1.7752,-1.7751,-1.775,-1.7691,-1.769,-1.7688,-1.7687,-1.7639,-1.7638,-1.7638,-1.7662,0,0,-1.7636,-1.7635,0,0,0,0,0,0,0,0,-1.7813,-1.781,-1.777,-1.7767,-1.7762,-1.7726,-1.7747,-1.7721,-1.7692,-1.7717,-1.7688,-1.7686,-1.7669,-1.7666,-1.766,-1.7659,-1.7657,-1.7635,-1.7635,-1.7635,-1.7635,0,0,0,0,0,0,0,-1.7815,-1.7812,-1.7781,-1.777,-1.7765,-1.7749,-1.7744,-1.7742,-1.7702,-1.7715,-1.7711,-1.7706,-1.7666,-1.766,-1.7658,-1.7657,-1.7635,-1.7635,-1.7635,-1.7634,-1.7671,-1.7672,0,0,0,0,0,0,-1.7823,-1.7814,-1.7783,-1.778,-1.7785,-1.775,-1.7743,-1.7739,-1.7702,-1.7694,-1.7707,-1.7703,-1.7662,-1.7659,-1.7656,-1.768,-1.7635,-1.7634,-1.7634,-1.7669,-1.7671,-1.7672,0,0,0,0,0,0,-1.7824,-1.7821,-1.7785,-1.7796,-1.779,-1.7751,-1.7746,-1.7739,-1.7733,-1.7695,-1.7688,-1.7708,-1.7661,-1.7657,-1.766,-1.7678,-1.7634,-1.7633,-1.7668,-1.767,-1.7672,-1.773,0,0,0,0,0,0,-1.7825,-1.7821,-1.7831,-1.7796,-1.779,-1.7791,-1.7747,-1.7739,-1.7732,-1.7726,-1.7695,-1.7688,-1.7659,-1.7661,-1.7659,-1.7676,-1.7633,-1.7666,-1.7669,-1.7671,-1.7726,-1.7734,-1.774,0,0,0,0,0,-1.7827,-1.785,-1.7832,-1.7828,-1.7801,-1.7792,-1.7788,-1.7755,-1.7733,-1.7742,-1.7717,-1.7689,-1.7676,-1.7662,-1.7659,-1.7676,-1.7665,-1.7668,-1.7671,-1.7723,-1.7732,-1.774,0,0,0,0,0,0,-1.7889,-1.7845,-1.7824,-1.7837,-1.7818,-1.7782,-1.7792,-1.7766,-1.7753,-1.7749,-1.7708,-1.7701,-1.7709,-1.7693,-1.7678,-1.7696,-1.7666,-1.7669,-1.7707,-1.7715,-1.7722,-1.7725,-1.7632,0,0,0,0,0,-1.7904,-1.7901,-1.7862,-1.7877,-1.7869,-1.7832,-1.7827,-1.7802,-1.7782,-1.7774,-1.775,-1.7731,-1.7722,-1.7718,-1.7708,-1.7723,-1.7714,-1.7733,-1.774,-1.7746,-1.7749,-1.7753,-1.776,-1.7683,-1.7682,-1.7682,0,0,-1.7935,-1.7911,-1.7911,-1.7889,-1.7872,-1.7868,-1.7826,-1.7825,-1.7822,-1.7774,-1.7775,-1.7756,-1.7732,-1.7741,-1.7744,-1.7728,-1.7768,-1.7749,-1.7754,-1.7754,-1.7757,-1.7764,-1.7771,-1.7685,-1.7684,-1.7684,0,0,-1.799,-1.7972,-1.7981,-1.7964,-1.7938,-1.7913,-1.7915,-1.7882,-1.7867,-1.7868,-1.7831,-1.7826,-1.7813,-1.7796,-1.7786,-1.7831,-1.7804,-1.7829,-1.7866,-1.787,-1.7877,-1.7882,-1.7897,-1.7903,-1.7832,-1.7832,-1.7832,0,-1.8033,-1.8027,-1.7989,-1.799,-1.798,-1.7935,-1.7943,-1.7929,-1.7901,-1.7895,-1.7877,-1.7857,-1.7838,-1.7841,-1.7852,-1.7846,-1.7846,-1.7833,-1.7879,-1.7884,-1.7888,-1.7902,-1.7907,-1.7835,-1.7835,-1.7835,-1.7834,0,-1.8079,-1.8075,-1.8086,-1.8059,-1.805,-1.8055,-1.8017,-1.8013,-1.7988,-1.7965,-1.7964,-1.7939,-1.7922,-1.7921,-1.7898,-1.792,-1.791,-1.7886,-1.7855,-1.7899,-1.7911,-1.7916,-1.784,-1.7839,-1.7838,-1.7837,0,0,-1.8174,-1.8124,-1.8129,-1.8115,-1.8082,-1.8078,-1.8079,-1.8062,-1.8058,-1.804,-1.8039,-1.8027,-1.8003,-1.7992,-1.7966,-1.797,-1.8006,-1.7945,-1.7944,-1.7956,-1.8027,-1.8045,-1.8052,-1.7987,-1.7988,-1.7988,-1.8028,0,-1.8223,-1.8223,-1.8188,-1.8197,-1.8192,-1.8148,-1.8148,-1.8127,-1.8105,-1.8096,-1.8071,-1.8062,-1.8033,-1.8025,-1.8027,-1.8001,-1.8019,-1.7998,-1.7985,-1.7985,-1.7993,-1.8058,-1.8078,-1.8117,-1.8033,-1.8034,-1.8034,0,-1.8281,-1.8264,-1.8273,-1.8236,-1.8233,-1.8235,-1.8214,-1.8207,-1.8182,-1.8164,-1.815,-1.812,-1.8117,-1.8087,-1.8082,-1.8068,-1.8061,-1.8046,-1.8047,-1.8045,-1.8013,-1.8057,-1.8129,-1.8135,-1.8042,-1.8041,-1.8041,0,-1.8348,-1.8328,-1.833,-1.8319,-1.8277,-1.8279,-1.8262,-1.8234,-1.8225,-1.8207,-1.82,-1.8183,-1.8173,-1.8159,-1.8124,-1.8106,-1.8123,-1.8091,-1.8108,-1.8109,-1.8114,-1.8114,-1.8185,-1.8109,-1.8109,-1.8109,-1.8109,0,-1.8406,-1.8413,-1.8359,-1.8361,-1.8366,-1.8324,-1.8331,-1.8309,-1.8285,-1.828,-1.824,-1.8236,-1.819,-1.8181,-1.8153,-1.8152,-1.8149,-1.8134,-1.8126,-1.8137,-1.8139,-1.8132,-1.8129,-1.8111,-1.811,-1.811,-1.811,0,-1.8483,-1.8447,-1.8446,-1.8405,-1.8395,-1.8401,-1.8366,-1.8364,-1.8338,-1.8332,-1.8328,-1.8287,-1.8274,-1.8237,-1.8215,-1.8196,-1.8202,-1.8189,-1.8211,-1.8206,-1.8225,-1.8224,-1.8294,-1.8301,-1.8222,-1.8222,-1.8223,0,-1.8523,-1.8527,-1.8485,-1.8479,-1.8463,-1.8454,-1.8443,-1.8402,-1.8393,-1.8362,-1.8364,-1.8347,-1.8332,-1.8312,-1.828,-1.8261,-1.8247,-1.8272,-1.8244,-1.8254,-1.8246,-1.8246,-1.8246,-1.8279,-1.828,-1.8281,-1.8282,0,-1.8596,-1.8578,-1.8565,-1.8545,-1.8533,-1.8516,-1.8496,-1.8493,-1.8446,-1.8437,-1.8422,-1.841,-1.8386,-1.8369,-1.8345,-1.8326,-1.8296,-1.8291,-1.8294,-1.8305,-1.8317,-1.831,-1.8228,-1.829,-1.8289,-1.8288,-1.8288,-1.8288,-1.8655,-1.8656,-1.8626,-1.8612,-1.8592,-1.8574,-1.857,-1.8542,-1.8529,-1.8506,-1.8481,-1.8469,-1.844,-1.8405,-1.8387,-1.8376,-1.8361,-1.8365,-1.8366,-1.8368,-1.8372,-1.8319,-1.8372,-1.8371,-1.8371,-1.8371,-1.8371,0,-1.8726,-1.8704,-1.8692,-1.8664,-1.8652,-1.8624,-1.8599,-1.8591,-1.8581,-1.8556,-1.8541,-1.8523,-1.8505,-1.847,-1.845,-1.8447,-1.8433,-1.8443,-1.8443,-1.8439,-1.8388,-1.8387,-1.8455,-1.8455,-1.8455,-1.8455,-1.8455,-1.8455,-1.8762,-1.876,-1.8738,-1.8725,-1.8703,-1.869,-1.8678,-1.866,-1.864,-1.8622,-1.8607,-1.8584,-1.8554,-1.853,-1.8513,-1.8502,-1.8496,-1.8511,-1.8497,-1.8451,-1.8443,-1.8435,-1.8434,-1.8511,-1.8511,-1.8548,-1.8549,-1.8549]}]]